CAPE
11 6 7 8 5 4 2 0 0 0 0 0 0 0 0 0 0 0 0 0 0 0 0 0 0 0 0 0 0 0 0 0 0 0 0 0 0 0 0 0 0 0 0 0 52
4 9 8 9 7 2 2 0 0 0 0 0 0 0 0 0 0 0 0 0 0 0 0 0 0 0 0 0 0 0 0 0 0 0 0 0 0 0 0 0 0 0 0 0 37
6 4 9 8 7 5 2 0 0 0 0 0 0 0 0 0 0 0 0 0 0 0 0 0 0 0 0 0 0 0 0 0 0 0 0 0 0 0 0 0 0 0 0 0 17
5 4 9 3 7 7 2 0 0 0 0 0 0 0 0 0 0 0 0 0 0 0 0 0 0 0 0 0 0 0 0 0 0 0 0 0 0 0 0 0 0 0 0 0 0
3 3 6 4 6 4 0 0 0 0 0 0 0 0 0 0 0 0 0 0 0 0 0 0 0 0 0 0 0 0 0 0 0 0 0 0 0 0 0 0 0 0 0 0 0
0 0 5 6 5 4 0 0 0 0 0 0 0 0 0 0 0 0 0 0 0 0 0 0 0 0 0 0 0 0 0 0 0 0 0 0 0 0 0 0 0 0 0 0 0
0 0 2 5 3 0 0 0 0 0 0 0 0 0 0 0 0 0 0 0 0 0 0 0 0 0 0 0 0 0 0 0 0 0 0 0 0 0 0 0 0 0 0 0 0
0 0 2 3 5 0 0 0 0 0 0 0 0 0 0 0 0 0 0 0 0 0 0 0 0 0 0 0 0 0 0 0 0 0 0 0 0 0 0 0 0 0 0 0 0
1 0 6 5 0 0 0 0 0 0 0 0 0 0 0 0 0 0 0 0 0 0 0 0 0 0 0 0 0 0 0 0 0 0 0 0 0 0 0 0 0 0 0 0 0
5 3 0 5 0 0 0 0 0 0 0 0 0 0 0 0 0 0 0 0 0 0 0 0 0 0 0 0 0 0 0 0 0 0 0 0 0 0 0 0 0 0 0 0 0
0 0 0 0 0 0 0 0 0 0 0 0 0 0 0 0 0 0 0 0 0 0 0 0 0 0 0 0 0 0 0 0 0 0 0 0 0 0 0 0 0 0 0 0 0
1 7 1 0 0 0 0 0 0 0 0 0 0 0 0 0 0 0 0 0 0 0 0 0 0 0 0 0 0 0 0 0 0 0 0 0 0 0 0 0 0 0 0 0 0
2 5 0 0 0 8 0 0 0 0 0 0 0 0 0 0 0 0 0 0 0 0 0 0 0 0 0 0 0 0 0 0 0 0 0 0 0 0 0 0 0 0 0 0 0
10 9 0 0 10 3 0 0 0 0 0 0 0 0 0 0 0 0 0 0 0 0 0 0 0 0 0 0 0 0 0 0 0 0 0 0 0 0 0 0 0 0 0 0 0
4 2 19 47 9 4 0 0 0 0 0 0 0 0 0 0 0 0 0 0 0 0 0 0 0 0 0 0 0 0 0 0 0 0 0 0 0 0 0 0 0 0 0 0 0
2 4 0 16 31 0 0 0 0 0 0 0 0 0 0 0 0 0 0 0 0 0 0 0 0 0 0 0 0 0 0 0 0 0 0 0 0 0 0 0 0 0 0 0 0
0 4 0 0 82 7 1 6 0 0 0 0 0 0 0 0 0 0 0 0 0 0 0 0 0 0 0 0 0 0 0 0 0 0 0 0 0 0 0 0 0 0 0 0 0
0 3 0 3 2 2 31 1 0 0 0 0 0 0 0 0 0 0 0 0 0 0 0 0 0 0 0 0 0 0 0 0 0 0 0 0 0 0 0 0 0 0 0 0 0
0 0 0 0 2 3 58 1 0 0 0 0 0 0 0 0 0 0 0 0 0 0 0 0 0 0 0 0 0 0 0 0 0 0 0 0 0 0 0 0 0 0 0 0 0
0 3 0 1 1 26 40 0 0 0 0 0 0 0 0 0 0 0 0 0 0 0 0 0 0 0 0 0 0 0 0 0 0 0 0 0 0 0 0 0 0 0 0 0 0
0 7 3 2 1 1 8 0 0 0 0 0 0 0 0 0 0 0 0 0 0 0 0 0 0 0 0 0 0 0 0 0 0 0 0 0 0 0 0 0 0 0 0 0 0
0 0 0 6 0 0 0 0 8 0 0 0 0 0 0 0 0 0 0 0 0 0 0 0 0 0 0 0 0 0 0 0 0 0 0 0 0 0 0 0 0 0 0 0 0
0 0 0 0 0 0 1 1 2 16 3 0 0 0 0 0 0 0 0 0 0 0 0 0 0 0 0 0 0 0 0 0 0 0 0 0 0 0 0 0 0 0 0 0 0
0 0 0 2 3 0 0 0 1 0 7 0 0 0 0 0 0 0 0 0 0 0 0 0 0 0 0 0 0 0 0 0 0 0 0 0 0 0 0 0 0 0 0 0 0
0 0 0 1 0 0 0 0 0 0 1 0 0 0 0 0 0 0 0 0 0 0 0 0 0 0 0 0 0 0 0 0 0 0 0 0 0 0 0 0 0 0 0 0 0
0 0 0 0 0 0 0 1 1 0 0 0 0 0 0 0 0 0 0 0 0 0 0 0 0 0 0 0 0 0 0 0 0 0 0 0 0 0 0 0 0 0 0 0 0
0 0 0 0 0 0 0 0 1 0 1 3 2 0 0 0 0 0 0 0 0 0 0 0 0 0 0 0 0 0 0 0 0 0 0 0 0 0 0 0 0 0 0 0 0
CIN
-6 -5 -6 -2 -1 0 -2 0 0 0 0 0 0 0 0 0 0 0 0 0 0 0 0 0 0 0 0 0 0 0 0 0 0 0 0 0 0 0 0 0 0 0 0 0 -278
-10 -6 -4 -3 -1 -1 -1 0 0 0 0 0 0 0 0 0 0 0 0 0 0 0 0 0 0 0 0 0 0 0 0 0 0 0 0 0 0 0 0 0 0 0 0 0 -366
-8 -6 -4 -2 -2 0 -1 0 0 0 0 0 0 0 0 0 0 0 0 0 0 0 0 0 0 0 0 0 0 0 0 0 0 0 0 0 0 0 0 0 0 0 0 0 -379
-10 -6 -3 -3 -2 -1 0 0 0 0 0 0 0 0 0 0 0 0 0 0 0 0 0 0 0 0 0 0 0 0 0 0 0 0 0 0 0 0 0 0 0 0 0 0 0
-16 -6 -6 -1 -2 -1 0 0 0 0 0 0 0 0 0 0 0 0 0 0 0 0 0 0 0 0 0 0 0 0 0 0 0 0 0 0 0 0 0 0 0 0 0 0 0
0 -1 -4 -1 -1 -1 0 0 0 0 0 0 0 0 0 0 0 0 0 0 0 0 0 0 0 0 0 0 0 0 0 0 0 0 0 0 0 0 0 0 0 0 0 0 0
0 0 -6 -2 0 0 0 0 0 0 0 0 0 0 0 0 0 0 0 0 0 0 0 0 0 0 0 0 0 0 0 0 0 0 0 0 0 0 0 0 0 0 0 0 0
0 0 -6 -2 -2 0 0 0 0 0 0 0 0 0 0 0 0 0 0 0 0 0 0 0 0 0 0 0 0 0 0 0 0 0 0 0 0 0 0 0 0 0 0 0 0
-158 -5 -6 -4 0 0 0 0 0 0 0 0 0 0 0 0 0 0 0 0 0 0 0 0 0 0 0 0 0 0 0 0 0 0 0 0 0 0 0 0 0 0 0 0 0
-9 -191 0 -4 0 0 0 0 0 0 0 0 0 0 0 0 0 0 0 0 0 0 0 0 0 0 0 0 0 0 0 0 0 0 0 0 0 0 0 0 0 0 0 0 0
0 0 0 -1 0 0 0 0 0 0 0 0 0 0 0 0 0 0 0 0 0 0 0 0 0 0 0 0 0 0 0 0 0 0 0 0 0 0 0 0 0 0 0 0 0
-27 -115 -9 0 0 0 0 0 0 0 0 0 0 0 0 0 0 0 0 0 0 0 0 0 0 0 0 0 0 0 0 0 0 0 0 0 0 0 0 0 0 0 0 0 0
-11 -113 0 0 0 -1 0 0 0 0 0 0 0 0 0 0 0 0 0 0 0 0 0 0 0 0 0 0 0 0 0 0 0 0 0 0 0 0 0 0 0 0 0 0 0
-4 -48 -8 0 -1 -1 0 0 0 0 0 0 0 0 0 0 0 0 0 0 0 0 0 0 0 0 0 0 0 0 0 0 0 0 0 0 0 0 0 0 0 0 0 0 0
0 0 -27 -40 -5 0 0 0 0 0 0 0 0 0 0 0 0 0 0 0 0 0 0 0 0 0 0 0 0 0 0 0 0 0 0 0 0 0 0 0 0 0 0 0 0
0 0 0 -2 -36 0 0 0 0 0 0 0 0 0 0 0 0 0 0 0 0 0 0 0 0 0 0 0 0 0 0 0 0 0 0 0 0 0 0 0 0 0 0 0 0
0 0 0 0 -4 -187 -151 -34 0 0 0 0 0 0 0 0 0 0 0 0 0 0 0 0 0 0 0 0 0 0 0 0 0 0 0 0 0 0 0 0 0 0 0 0 0
0 0 0 0 0 -67 -69 -5 0 0 0 0 0 0 0 0 0 0 0 0 0 0 0 0 0 0 0 0 0 0 0 0 0 0 0 0 0 0 0 0 0 0 0 0 0
0 0 0 0 0 -52 -26 -24 0 0 0 0 0 0 0 0 0 0 0 0 0 0 0 0 0 0 0 0 0 0 0 0 0 0 0 0 0 0 0 0 0 0 0 0 0
0 -2 -2 0 0 -27 -6 0 0 0 0 0 0 0 0 0 0 0 0 0 0 0 0 0 0 0 0 0 0 0 0 0 0 0 0 0 0 0 0 0 0 0 0 0 0
0 -1 -7 -16 0 0 -1 0 0 0 0 0 0 0 0 0 0 0 0 0 0 0 0 0 0 0 0 0 0 0 0 0 0 0 0 0 0 0 0 0 0 0 0 0 0
0 -1 0 -4 0 0 0 0 -22 0 -12 0 0 0 0 0 0 0 0 0 0 0 0 0 0 0 0 0 0 0 0 0 0 0 0 0 0 0 0 0 0 0 0 0 0
0 0 0 -2 0 0 0 0 -3 -3 -30 0 0 0 0 0 0 0 0 0 0 0 0 0 0 0 0 0 0 0 0 0 0 0 0 0 0 0 0 0 0 0 0 0 0
0 0 0 0 0 0 0 0 0 0 -8 0 0 0 0 0 0 0 0 0 0 0 0 0 0 0 0 0 0 0 0 0 0 0 0 0 0 0 0 0 0 0 0 0 0
0 0 0 -2 0 0 0 0 0 0 0 0 0 0 0 0 0 0 0 0 0 0 0 0 0 0 0 0 0 0 0 0 0 0 0 0 0 0 0 0 0 0 0 0 0
0 0 0 0 0 0 0 0 0 0 0 0 0 0 0 0 0 0 0 0 0 0 0 0 0 0 0 0 0 0 0 0 0 0 0 0 0 0 0 0 0 0 0 0 0
0 0 0 0 0 0 0 0 0 0 0 0 0 0 0 0 0 0 0 0 0 0 0 0 0 0 0 0 0 0 0 0 0 0 0 0 0 0 0 0 0 0 0 0 0
Wind_Speed
21 24 28 27 25 23 22 22 21 21 19 18 19 20 18 17 15 18 20 28 26 22 22 23 24 23 21 23 22 21 20 17 18 16 15 24 25 22 20 22 22 21 18 15 20
21 24 29 28 26 24 22 22 21 20 18 16 16 15 16 15 18 25 30 26 24 21 25 26 26 23 24 24 23 24 25 23 24 22 19 25 25 26 23 23 23 23 18 7 19
24 25 29 27 26 24 22 22 20 19 17 15 14 16 15 13 18 24 29 25 24 23 24 26 24 26 25 26 24 24 26 21 22 20 18 14 21 19 23 23 23 23 22 19 20
24 24 30 26 25 23 22 22 21 20 18 15 18 18 17 16 23 19 20 21 22 23 24 26 26 27 26 28 24 24 21 19 19 19 17 14 13 20 22 15 13 17 16 19 21
27 27 27 28 24 23 22 23 21 20 20 19 21 20 18 20 25 18 17 20 21 24 27 29 29 27 28 27 24 23 23 19 17 17 16 16 17 18 21 20 17 15 9 16 21
29 29 30 29 25 23 21 22 21 20 20 19 20 19 22 25 19 15 17 21 23 25 27 27 29 28 25 27 26 23 21 20 20 19 19 20 20 20 18 15 19 20 16 6 11
25 26 30 28 27 23 22 21 21 20 20 19 20 22 24 25 18 16 19 22 24 24 26 26 23 28 23 25 22 19 22 22 24 23 22 21 25 27 22 21 19 16 15 13 5
19 30 31 29 25 24 23 21 21 20 19 19 20 23 25 21 16 18 19 20 21 21 23 22 20 21 23 21 22 23 23 27 26 24 23 22 29 24 23 24 24 16 12 13 13
19 24 31 28 26 24 22 21 20 19 18 16 20 25 26 20 22 20 20 22 21 20 20 20 21 23 23 26 26 27 28 29 26 26 23 24 25 24 23 20 17 15 13 13 15
20 22 26 30 27 23 21 20 19 15 16 16 21 26 24 29 22 20 18 19 22 21 22 23 24 27 28 31 34 30 30 27 28 25 26 27 31 24 20 24 22 22 20 16 13
20 22 29 29 29 24 21 20 23 25 25 25 23 24 21 21 19 23 19 19 20 26 30 27 31 37 31 29 27 26 27 26 25 24 25 29 31 32 28 27 27 23 22 18 20
19 22 27 29 29 25 27 32 29 23 30 24 22 22 18 22 24 24 22 24 27 31 27 30 41 30 26 25 25 23 26 26 24 21 24 25 30 30 28 25 25 26 23 19 18
17 23 27 29 27 29 33 27 22 18 26 31 24 26 24 24 25 28 26 23 28 29 32 34 30 24 28 28 28 28 26 25 26 22 23 26 30 27 24 21 21 22 19 18 16
18 26 26 25 27 30 34 25 21 19 28 35 36 27 27 26 26 23 26 25 26 31 29 30 25 29 29 32 29 32 27 24 24 24 30 23 30 24 22 22 20 19 16 16 14
18 23 28 27 25 31 28 22 18 19 42 27 31 24 28 28 22 28 25 26 30 27 29 32 29 28 33 32 27 30 22 23 23 26 28 28 30 26 22 22 19 16 13 11 12
18 24 27 28 27 28 21 19 20 30 45 31 28 33 30 32 26 25 28 23 21 25 28 28 22 26 29 25 26 18 20 21 23 26 35 30 30 30 23 20 16 12 10 8 7
17 24 28 26 27 25 23 23 30 44 27 33 36 34 37 34 31 28 32 30 30 32 34 30 29 25 22 24 23 26 24 29 33 34 37 26 30 31 21 18 11 7 6 6 6
16 19 26 26 23 25 28 28 44 40 34 24 30 31 40 33 37 32 32 35 35 30 30 34 37 30 26 28 30 28 27 31 36 37 35 25 33 29 21 16 9 6 4 4 5
20 22 23 24 25 25 27 40 47 35 34 29 24 31 36 38 35 36 39 41 38 35 32 33 36 27 26 24 23 32 36 24 27 28 32 30 30 26 20 15 10 9 7 6 5
18 23 30 24 21 28 33 50 43 28 27 29 35 33 38 38 37 40 39 41 40 38 32 29 33 29 28 25 27 30 23 32 31 36 39 35 36 32 22 17 14 12 10 8 7
22 21 22 27 24 30 44 49 40 34 30 33 35 33 34 36 38 39 40 36 39 36 33 29 30 30 29 36 34 29 32 31 29 32 36 38 36 27 21 18 16 13 11 10 9
23 27 22 20 30 28 34 36 40 35 33 35 32 30 32 33 35 40 42 42 31 33 40 31 32 35 35 31 31 34 35 33 35 37 36 34 37 25 20 16 15 14 12 11 10
23 24 22 20 30 34 32 32 35 34 35 32 33 34 29 31 35 37 36 31 29 30 35 33 37 39 37 36 33 37 35 36 34 30 35 37 39 27 18 17 16 15 13 12 11
22 28 24 25 25 27 33 36 34 34 35 34 34 30 32 36 36 34 37 32 30 32 30 28 40 44 46 43 35 42 39 38 38 41 40 41 38 26 21 20 19 17 15 14 14
21 26 23 28 33 32 28 30 33 33 31 30 33 35 32 32 33 36 34 32 32 31 30 30 42 41 45 40 35 39 41 38 40 43 42 46 41 32 25 23 21 19 17 16 15
24 24 23 26 25 30 31 32 31 27 29 34 33 30 29 34 36 34 30 33 33 28 29 31 39 35 42 38 40 42 40 39 41 42 43 42 41 31 23 21 21 19 18 17 16
23 21 23 26 28 30 33 31 29 23 23 24 25 27 31 30 28 25 25 26 27 29 30 31 31 32 43 35 37 50 47 40 40 41 41 45 40 27 25 26 24 21 20 19 17
Wind_Direction
239 237 235 235 237 239 239 239 243 245 250 250 251 250 257 261 261 263 254 238 241 240 231 229 227 225 227 224 224 225 228 239 233 233 231 200 190 197 202 176 186 185 199 219 104
234 235 233 234 235 237 237 237 238 244 249 250 252 251 249 254 255 251 236 241 237 234 226 221 219 221 222 221 222 222 224 228 220 219 223 202 197 181 184 180 177 179 210 30 110
234 234 231 233 234 234 235 235 236 240 244 247 249 247 247 253 253 249 236 236 231 229 226 224 221 218 220 218 220 224 225 228 225 229 229 233 214 223 199 192 183 170 152 123 129
232 232 229 230 233 232 232 232 235 238 240 241 240 239 240 245 237 251 240 231 229 225 223 220 219 219 219 216 221 223 229 231 232 233 235 237 242 225 216 244 264 239 192 129 140
230 230 230 228 230 230 230 230 231 234 234 237 235 235 237 241 238 249 236 227 227 223 221 219 217 220 219 219 221 228 227 234 236 236 238 239 242 244 234 243 256 270 310 131 153
228 227 226 226 228 228 227 229 230 233 233 236 235 236 237 235 247 250 233 227 226 223 222 222 222 224 223 222 225 231 231 235 236 237 239 240 247 249 255 272 255 254 278 343 126
227 226 223 225 226 227 227 227 229 232 234 236 237 237 235 235 247 242 231 228 227 226 222 226 229 225 224 222 229 229 234 238 238 240 245 249 247 241 255 266 272 283 289 298 351
216 224 222 222 225 225 226 226 228 230 233 235 237 235 236 244 248 238 231 228 229 229 227 228 227 228 230 224 231 232 237 237 240 242 248 252 245 254 260 261 265 291 303 299 299
214 218 217 221 222 222 224 225 227 230 233 233 237 232 235 242 235 236 232 224 225 227 228 228 229 229 227 223 229 234 236 238 244 245 251 251 259 261 264 273 284 290 305 308 299
207 210 216 218 220 219 219 221 225 227 233 237 240 232 237 229 233 232 234 223 224 220 223 228 230 227 228 226 227 231 236 243 244 249 251 254 254 262 272 268 273 276 287 303 308
205 210 213 217 216 216 209 214 218 228 229 232 236 235 235 233 233 230 229 224 225 223 224 228 227 225 227 232 239 237 240 245 250 254 255 255 258 256 266 271 272 281 288 300 298
206 208 212 215 214 215 219 223 225 235 225 237 238 233 241 233 228 226 225 225 223 223 225 227 227 232 232 233 237 238 241 246 254 260 260 265 262 265 271 276 279 282 291 299 303
206 208 210 212 213 217 221 227 230 231 231 234 240 233 232 233 231 223 224 230 225 225 226 229 238 233 233 234 235 242 243 246 254 259 267 270 269 270 277 283 288 291 295 302 305
215 212 209 207 216 219 222 228 229 237 234 234 233 239 231 233 233 234 228 232 232 227 228 237 242 232 234 237 239 242 249 253 255 258 260 272 267 274 276 280 290 295 299 302 307
225 221 215 208 223 219 222 223 227 237 230 237 227 239 231 230 229 229 233 235 230 229 231 233 236 235 235 240 241 248 251 253 258 260 265 266 269 274 277 279 287 298 306 314 314
233 225 220 221 228 224 215 216 224 229 231 231 227 226 222 228 232 227 229 238 239 235 236 240 248 242 243 245 244 242 249 258 263 263 261 263 266 272 273 279 287 297 306 320 330
238 229 222 225 224 219 210 212 222 229 235 232 227 225 222 225 227 229 225 225 229 228 231 237 240 245 246 240 242 245 239 252 255 256 260 269 266 270 279 283 281 283 299 318 331
247 230 226 227 228 216 210 214 228 231 230 241 231 224 226 227 231 231 228 228 234 235 234 233 238 237 242 245 243 239 243 251 255 258 262 270 266 274 273 283 276 283 295 314 331
239 237 231 229 230 218 204 221 229 235 229 229 226 224 230 230 233 230 232 233 233 233 240 238 243 244 245 249 243 243 245 260 262 268 265 266 271 277 275 264 262 260 262 280 304
236 235 229 241 229 222 216 227 231 242 233 228 233 234 229 228 230 230 232 239 238 236 243 247 246 248 247 250 251 251 247 252 257 259 263 268 269 269 261 250 251 251 247 262 285
226 233 238 237 230 226 224 229 236 241 240 233 237 238 238 233 234 235 239 245 236 235 242 244 251 251 245 245 242 247 248 254 260 262 264 268 272 275 258 241 241 243 250 259 272
237 233 238 235 223 230 229 232 234 236 241 241 243 244 240 237 236 237 239 241 244 237 238 243 249 250 246 256 255 251 253 248 255 260 262 270 273 285 264 244 242 246 254 263 273
240 240 244 245 232 233 237 238 233 234 238 239 242 243 247 243 244 242 245 249 247 240 237 237 245 246 252 257 256 251 252 251 258 266 262 264 272 283 266 248 250 249 257 263 271
246 237 245 243 243 240 236 233 234 239 237 241 245 246 242 243 246 247 246 250 249 245 246 241 247 246 248 253 254 252 251 253 253 259 264 264 271 275 261 250 250 255 257 262 269
253 245 248 240 238 237 242 236 236 239 242 240 242 243 239 242 243 244 244 247 250 249 247 246 248 250 253 258 258 256 251 250 251 256 260 266 267 263 252 249 249 254 257 262 266
246 248 250 247 246 238 240 237 241 246 243 239 241 239 244 241 240 239 241 242 245 246 242 247 251 251 254 258 258 259 256 254 253 256 261 267 270 270 253 253 251 249 251 256 261
251 257 251 247 244 238 238 240 243 246 252 249 242 243 243 246 249 248 250 250 249 245 243 244 247 251 254 259 261 259 254 254 258 258 258 262 267 271 256 253 247 247 250 253 258